Wind_Speed
22 22 22 22 23 25 27 29 30 31 33 34 36 36 36 35 36 36 35 33 30 27 27 26 23 20 20 23 24 26 20 13 19 22 15 8 9 10 12 13 14 16 16 14 15 11 8 11 13 16 9 3 4 2 2 2 2 4 4 2 3 3 4 5 7 7 3 6 8 6 0 3 10 6 3 3 3 6 7 9 7 5 10 13 15 12 8 7
22 22 22 23 24 26 28 29 31 32 33 35 36 36 36 36 36 36 34 32 29 27 26 24 22 20 21 25 26 25 15 8 16 19 13 11 10 10 12 13 14 16 16 14 14 11 7 6 7 9 7 3 4 3 2 2 3 3 4 0 4 6 6 6 7 6 4 6 9 8 2 2 8 5 1 4 9 6 8 12 7 7 14 14 15 14 10 6
21 22 22 23 25 27 28 30 31 33 34 35 36 36 36 36 36 35 33 31 28 26 25 22 20 18 21 27 27 23 11 6 10 9 12 14 10 11 12 13 14 16 16 13 11 10 6 2 3 5 5 3 3 3 4 3 2 1 3 1 6 6 5 6 7 7 7 6 9 10 4 2 7 3 0 4 10 10 10 13 7 8 13 12 10 8 8 7
21 21 22 23 25 27 29 30 32 33 34 35 36 36 36 36 35 34 32 31 27 27 25 21 19 18 20 26 26 19 7 7 5 8 13 13 10 11 12 13 15 15 15 12 8 8 8 5 4 6 4 3 3 3 3 3 2 2 4 4 7 3 4 7 8 8 7 3 5 8 6 7 8 1 2 3 8 12 12 12 9 11 13 11 9 5 5 7
20 20 22 23 25 27 29 31 32 34 35 36 36 36 36 36 35 33 32 30 28 28 25 22 20 18 22 24 19 12 4 6 4 10 13 10 10 11 12 14 14 14 13 10 7 6 9 7 6 6 5 2 4 4 1 3 1 1 5 8 7 3 5 9 6 6 5 3 4 7 8 8 5 2 6 5 7 10 13 11 6 9 11 8 8 4 3 5
19 19 21 23 25 27 29 31 33 34 35 36 36 36 36 35 34 33 32 30 29 29 25 24 21 21 24 16 11 8 5 3 5 10 12 10 11 12 13 14 13 13 10 9 8 7 8 7 6 5 3 2 2 2 2 4 1 2 5 5 7 6 7 8 3 3 3 1 6 7 6 6 7 10 7 9 14 15 17 14 7 8 9 7 6 3 4 6
18 19 21 23 25 27 29 31 33 34 35 35 35 34 35 34 32 32 31 30 29 28 26 24 22 24 21 8 11 11 8 3 6 9 11 11 12 12 13 12 11 12 9 12 11 6 6 8 6 3 3 3 2 2 3 4 0 3 5 7 7 5 9 9 6 6 3 5 10 6 5 8 13 10 5 10 15 16 18 14 10 11 9 6 7 7 7 8
17 18 21 23 25 27 29 31 32 34 34 34 34 33 33 32 30 31 30 29 29 26 25 25 25 23 13 6 7 8 5 2 7 10 10 11 11 11 12 11 12 12 11 13 9 3 4 6 2 2 2 2 2 2 2 2 1 6 6 7 6 6 10 9 7 9 7 8 8 4 5 13 16 5 7 16 15 15 17 12 10 9 9 7 7 10 8 7
17 18 21 23 25 27 29 31 32 33 34 34 34 32 32 30 28 30 29 28 28 25 25 26 24 15 6 6 6 6 2 5 8 9 11 13 11 11 12 12 13 13 10 10 9 5 4 2 2 1 1 3 1 2 1 1 3 6 6 6 6 12 14 10 9 10 8 4 5 5 7 13 12 4 9 15 13 14 13 12 10 6 7 9 8 9 8 8
16 18 21 23 25 27 28 30 31 32 33 33 33 30 30 28 27 29 27 27 26 23 26 24 16 7 5 4 6 6 2 5 7 9 12 14 11 11 13 14 13 12 8 7 8 7 5 3 4 2 2 1 0 3 2 2 2 5 4 7 9 14 14 8 9 9 8 4 7 7 8 12 6 1 6 7 7 10 9 11 10 7 8 9 8 8 6 7
16 19 20 23 25 26 28 29 30 31 32 33 31 30 30 27 26 27 27 25 23 24 26 17 8 5 7 6 7 5 1 4 6 8 13 13 11 12 13 13 11 10 8 6 7 6 5 5 4 3 1 0 1 3 3 4 1 2 2 8 10 11 11 9 7 6 7 2 6 7 9 8 2 2 9 10 10 9 8 11 11 9 10 10 10 9 5 6
16 19 21 23 25 26 27 27 29 29 30 31 30 30 29 27 25 24 26 23 21 25 20 9 4 3 7 8 6 3 1 5 5 7 13 12 11 12 10 10 9 8 6 5 5 4 4 2 4 1 1 0 2 2 2 3 1 1 1 5 9 9 10 10 4 2 6 5 3 4 6 3 2 7 12 12 10 9 9 10 11 11 10 9 9 9 6 6
17 19 22 24 25 26 26 27 28 28 29 30 29 30 28 27 24 23 24 21 22 23 11 4 4 3 4 5 2 2 2 6 7 10 13 12 11 8 6 7 8 7 5 4 3 4 3 1 4 2 1 2 2 3 0 1 3 2 2 1 5 8 7 7 5 4 7 7 7 9 8 7 6 11 11 9 6 6 11 12 11 10 9 8 8 8 8 6
17 20 22 24 25 25 26 27 27 27 28 28 28 29 28 27 23 23 21 19 22 18 4 4 4 2 3 1 3 1 1 5 10 14 14 11 10 5 3 7 7 6 4 3 3 4 2 2 5 3 1 2 2 5 5 4 4 2 1 1 4 5 7 8 9 7 7 5 8 10 8 11 12 11 7 5 3 4 12 17 13 10 8 7 7 7 9 6
18 20 23 24 24 25 25 26 26 27 27 27 28 28 28 25 23 23 17 17 24 13 2 4 3 2 4 2 2 1 4 5 12 17 14 11 9 4 6 8 5 4 3 3 3 3 2 4 5 3 1 1 3 4 6 5 4 3 3 4 4 3 8 12 8 2 4 6 7 9 7 11 15 16 7 3 4 6 12 19 17 14 10 7 7 7 9 8
19 21 22 23 24 24 25 26 26 26 26 26 27 27 25 22 23 20 11 18 24 8 2 5 3 2 4 1 1 2 4 5 12 15 11 10 7 5 9 7 3 4 4 1 3 3 3 4 4 2 1 4 5 4 4 4 4 4 4 5 6 6 9 11 7 1 2 4 7 4 6 11 15 20 17 9 7 6 10 18 20 17 13 10 8 8 9 10
20 21 22 22 23 24 24 25 25 25 25 25 26 25 22 20 21 15 8 19 18 3 1 4 3 3 3 2 2 3 4 7 13 12 9 10 7 6 8 4 3 7 5 2 3 2 3 3 1 1 3 4 3 3 5 5 5 4 3 2 5 5 6 8 9 4 3 2 6 5 8 14 17 19 23 19 12 9 11 17 20 17 13 10 8 8 9 11
20 21 21 21 23 23 24 24 23 24 24 25 26 22 18 19 18 10 9 19 12 3 2 4 5 3 1 4 3 4 9 12 13 8 8 10 7 7 6 3 3 6 6 4 4 5 5 3 2 2 4 4 4 6 5 4 4 5 5 4 5 5 5 6 8 8 8 5 4 7 13 18 21 19 19 20 16 13 14 15 15 14 12 10 9 11 12 13
20 21 21 21 22 22 23 23 21 21 23 25 24 16 13 18 13 5 13 18 9 1 4 3 4 1 2 5 5 10 13 11 8 4 8 10 7 5 2 4 4 5 7 4 5 6 4 4 5 4 5 5 4 2 1 5 5 6 6 4 6 8 9 9 8 8 8 9 7 7 13 19 23 23 20 21 19 16 18 16 12 9 9 10 12 13 13 14
20 21 22 21 21 22 22 21 18 19 22 25 22 12 9 12 7 5 14 12 4 0 3 2 0 1 4 4 7 14 12 4 3 2 8 13 8 2 1 5 7 7 6 2 5 4 4 5 4 3 4 7 6 1 3 3 3 4 5 5 6 6 11 12 10 9 2 4 9 6 12 22 24 25 21 20 22 20 19 19 12 9 9 10 13 13 13 12
19 21 21 21 21 21 20 18 15 16 18 20 18 10 3 3 3 3 9 7 2 1 3 3 1 2 5 5 9 11 5 3 4 3 10 14 7 1 3 6 8 6 4 2 4 3 5 5 5 6 7 8 4 4 5 2 1 3 4 6 7 4 10 13 11 11 3 0 8 8 13 24 26 26 22 18 21 20 17 15 11 10 10 10 11 12 12 10
19 20 21 22 20 20 18 14 13 14 15 17 18 11 4 3 2 2 3 5 6 3 3 4 1 2 7 6 6 5 3 5 6 4 11 13 5 3 3 5 6 5 5 3 3 5 5 3 8 7 5 4 2 6 6 3 2 2 3 5 7 4 7 11 10 10 3 2 6 10 11 22 28 27 22 18 17 16 13 7 8 10 11 10 10 10 12 13
19 20 20 21 20 19 15 8 11 14 14 17 17 10 3 2 2 3 1 2 7 5 3 2 1 2 6 3 3 4 4 5 3 7 13 10 5 4 3 5 4 5 4 5 5 5 5 6 7 3 1 2 3 4 5 3 2 2 4 4 7 7 5 7 9 12 10 5 5 4 7 15 24 24 18 17 14 10 9 5 12 10 9 8 8 9 12 15
19 20 20 21 19 17 11 4 9 13 14 16 16 10 5 4 4 2 1 1 4 6 2 1 0 1 3 3 4 4 2 2 1 7 12 9 3 2 3 2 3 4 3 2 3 3 8 8 1 4 4 2 2 6 4 2 4 3 6 5 7 9 8 8 9 11 14 14 4 3 6 9 17 23 16 15 12 8 10 5 11 9 7 7 10 11 13 14
19 20 20 20 18 16 8 3 8 10 8 10 10 8 7 6 5 2 1 1 3 6 3 1 1 0 2 4 6 3 1 1 1 4 7 6 2 2 3 1 1 3 4 1 1 5 8 6 2 5 4 3 0 6 2 1 4 4 5 7 9 9 10 10 11 8 10 15 4 7 6 10 15 26 20 14 14 13 13 6 10 7 7 8 10 11 12 13
19 20 19 19 17 16 7 1 7 8 4 6 6 9 10 9 5 3 2 4 2 5 2 1 1 2 3 5 6 2 3 2 1 1 4 4 2 2 2 2 2 2 3 1 2 4 4 4 3 3 4 3 2 4 4 3 1 5 3 5 7 6 8 9 9 6 5 14 11 5 5 10 13 23 20 14 16 16 11 7 9 6 7 8 9 9 11 13
19 19 19 17 16 14 6 1 5 5 2 4 7 11 13 10 3 3 0 5 2 2 1 1 1 3 3 4 6 3 1 5 1 3 4 4 3 2 3 4 3 3 1 2 3 2 2 6 6 4 2 2 3 4 3 4 4 4 4 1 5 6 9 9 7 6 5 12 16 5 4 7 12 19 14 8 13 13 6 8 9 8 8 8 8 10 12 13
19 19 17 15 14 12 6 1 2 4 2 5 8 11 12 8 1 2 3 4 2 1 2 1 1 3 4 5 6 4 2 5 2 2 5 9 6 3 3 2 2 6 3 3 3 4 1 4 5 4 3 2 3 4 2 4 3 6 5 6 8 7 9 9 5 7 7 9 12 8 4 5 12 14 8 4 9 7 6 9 11 11 11 10 10 12 13 13
18 18 16 13 11 9 7 4 3 5 1 6 8 12 10 4 1 4 4 1 3 1 1 0 1 2 6 5 6 4 3 3 1 5 5 10 7 4 2 0 1 5 4 4 4 6 2 3 4 2 4 3 3 2 2 5 1 6 8 8 7 6 7 7 5 5 5 6 11 12 6 4 12 14 7 4 5 5 7 8 9 9 8 9 12 13 13 13
17 16 15 12 8 6 6 5 5 3 4 7 9 10 6 2 3 5 3 4 2 1 1 1 1 3 6 6 6 5 4 3 2 5 5 3 5 7 2 1 5 1 4 3 2 5 5 4 1 1 3 4 2 2 3 5 2 4 5 7 9 8 5 4 3 1 1 6 11 10 2 2 13 12 4 3 2 6 5 7 9 9 10 12 14 13 12 12
15 14 13 11 8 7 5 3 3 4 6 7 8 6 3 3 4 3 5 5 0 2 1 1 2 3 6 4 3 4 4 4 4 5 5 4 6 8 5 4 5 4 4 5 3 5 7 5 2 2 1 2 3 3 3 5 4 7 6 6 7 7 4 4 4 2 2 8 11 9 5 8 15 9 5 6 4 7 6 9 11 11 11 13 13 11 11 13
13 12 11 10 9 8 4 1 5 8 7 6 5 3 4 4 3 2 5 4 1 2 1 1 1 2 4 3 1 3 3 3 3 4 3 4 4 5 5 3 2 5 4 2 3 5 5 4 2 1 1 5 5 4 4 2 6 8 4 4 4 4 5 6 5 3 4 9 14 14 10 10 15 9 7 5 5 6 5 7 8 9 9 11 12 10 10 12
11 10 9 9 9 8 5 5 7 7 7 4 3 4 6 3 4 4 2 3 2 1 1 1 2 2 2 2 2 3 1 1 3 3 1 2 4 3 3 2 2 2 3 3 3 5 4 3 3 3 2 6 7 5 4 4 6 6 2 2 3 4 5 6 6 7 8 10 20 20 11 9 12 4 2 3 3 5 6 7 8 9 9 10 10 7 6 9
10 8 8 8 8 7 6 7 8 7 6 3 3 4 3 2 5 4 3 4 4 3 2 2 3 3 1 1 3 2 1 1 2 3 2 3 4 2 3 5 6 1 2 3 2 2 4 4 2 2 0 4 6 5 2 3 7 5 2 3 2 2 2 4 5 9 10 11 20 19 8 8 9 1 4 2 4 9 12 14 15 16 16 16 16 15 14 13
8 7 7 7 6 6 7 8 7 6 5 3 5 3 2 5 5 2 4 5 2 3 1 1 2 2 2 2 3 2 1 1 1 3 3 3 2 1 1 3 5 3 1 2 3 0 1 5 4 1 2 7 5 1 3 3 7 3 1 3 2 3 2 4 7 12 12 10 13 10 5 10 12 7 4 8 12 17 22 22 23 25 24 23 22 22 21 18
6 6 6 7 6 5 7 7 5 4 3 5 3 2 5 5 4 3 4 2 1 1 2 3 1 1 3 2 2 4 2 1 2 3 2 1 1 1 2 1 3 4 3 1 2 2 1 4 3 3 4 7 4 3 2 2 4 2 2 2 3 4 4 3 7 11 10 9 8 6 9 13 13 10 7 15 21 25 24 21 19 20 21 20 18 17 17 16
5 3 4 5 4 4 6 5 2 2 4 6 3 5 4 4 4 4 3 1 2 3 3 2 2 2 2 1 2 4 3 1 2 2 1 1 1 2 3 0 1 3 2 1 1 2 1 6 4 3 1 3 3 5 3 1 2 3 4 4 4 5 1 2 5 6 6 8 7 6 14 18 14 8 5 16 24 25 19 15 15 17 18 18 17 16 16 15
4 1 3 4 3 4 4 1 1 3 4 4 4 5 3 4 2 2 3 3 2 4 4 2 3 3 3 2 2 3 2 2 2 1 1 1 0 3 4 1 1 3 3 1 1 1 1 6 5 4 3 2 3 4 4 2 3 3 4 6 4 4 3 3 6 7 7 9 8 8 14 18 12 8 11 18 21 19 16 15 18 20 18 16 17 18 17 15
4 1 2 3 4 4 3 4 3 4 4 3 5 4 2 3 3 1 3 3 3 2 3 4 3 1 2 3 3 2 1 1 1 0 1 1 1 2 4 1 1 4 5 3 2 1 1 2 5 2 5 4 4 4 3 6 3 4 2 4 2 1 2 3 4 6 6 9 10 9 11 13 8 9 16 18 16 16 18 18 19 20 18 17 16 16 16 13
3 1 2 4 5 4 5 6 3 3 2 4 5 3 1 2 3 3 3 1 2 2 2 3 2 1 2 3 3 1 1 2 3 2 1 1 1 2 2 1 1 3 5 4 2 1 2 1 7 5 5 5 3 1 2 6 4 2 3 4 3 2 3 4 5 5 3 6 8 7 10 12 6 7 12 14 15 19 20 20 18 17 17 17 17 16 14 12
1 0 3 3 6 7 8 4 1 3 2 2 3 3 2 1 1 3 3 1 1 1 1 3 3 3 3 2 3 2 2 1 2 2 2 1 1 1 2 1 1 1 3 4 3 0 1 1 5 9 9 5 3 4 4 3 2 2 2 3 3 3 4 6 7 5 3 6 7 7 13 13 4 3 8 12 16 19 19 19 18 17 17 17 16 16 15 13
2 1 2 5 9 9 6 2 2 2 2 3 2 3 1 0 1 2 2 1 1 0 1 3 3 3 3 2 2 3 2 2 3 2 2 1 1 1 3 2 3 1 3 2 3 1 2 2 2 8 8 5 9 8 2 4 4 3 3 2 1 2 3 4 7 7 6 8 8 7 13 12 3 2 9 13 15 17 18 19 19 17 16 16 16 16 16 15
2 2 1 6 10 7 3 3 2 1 3 3 1 1 2 1 1 1 1 1 1 1 1 1 2 2 3 2 2 3 3 2 3 2 1 2 1 2 3 2 3 1 3 1 2 1 1 3 1 6 6 5 6 3 4 6 5 5 2 2 2 4 5 6 8 8 6 8 8 6 11 10 3 5 11 14 15 17 18 19 20 18 16 15 16 17 17 17
2 1 1 4 8 5 2 4 4 3 5 2 1 2 1 2 3 2 3 3 2 2 2 1 2 2 2 2 3 3 3 1 2 2 2 3 3 4 3 3 2 1 1 1 2 1 1 1 2 4 8 7 4 2 0 1 3 2 1 5 7 10 11 9 7 6 4 7 10 9 9 9 8 10 13 15 17 19 19 20 20 18 16 16 16 16 17 18
2 1 2 2 4 2 2 3 3 3 4 2 2 2 1 1 2 3 3 3 2 3 3 1 1 3 3 3 3 0 1 0 1 2 2 2 3 3 3 5 2 2 2 1 1 1 0 1 2 1 5 7 6 6 6 7 6 4 4 9 13 15 14 10 6 5 5 8 12 10 10 14 15 15 16 17 18 20 20 21 20 18 18 18 17 16 17 17
2 1 1 1 1 1 1 1 1 2 3 2 1 2 5 4 2 2 4 3 2 3 2 1 2 3 3 3 2 0 1 1 1 3 2 2 3 2 4 5 3 3 4 4 5 3 2 0 2 5 7 7 7 9 8 8 9 7 8 11 16 17 14 9 5 6 8 9 10 11 15 20 20 18 19 19 19 20 20 19 19 19 20 19 19 19 20 18
2 3 3 3 0 2 1 1 2 2 2 3 2 2 6 5 2 1 2 2 2 3 3 1 3 3 4 5 4 2 2 1 2 4 3 3 2 1 3 3 1 3 5 6 5 3 3 1 5 9 11 9 9 11 11 10 10 9 9 12 17 18 15 10 8 11 12 9 9 13 17 20 20 19 21 22 20 19 18 17 18 19 20 20 20 22 23 22
3 2 2 3 2 3 3 3 6 4 3 4 3 1 4 5 4 3 1 1 2 2 2 2 2 4 6 6 5 3 3 2 2 4 3 2 2 1 3 1 0 1 3 3 2 3 2 4 7 9 11 9 8 11 11 10 10 8 9 14 18 18 16 13 13 16 13 8 12 18 20 20 19 18 21 22 21 19 19 18 17 19 21 22 23 25 25 24
3 0 0 1 1 3 3 3 7 8 7 5 3 4 5 7 7 4 1 3 1 2 3 4 4 5 6 6 6 4 4 4 3 3 4 2 2 1 1 1 1 1 4 2 1 2 2 2 5 6 9 8 8 10 10 9 8 8 12 18 18 17 18 16 15 16 13 12 18 23 21 20 18 17 20 21 20 19 18 16 18 21 23 24 26 27 26 26
4 2 3 2 1 2 2 3 6 6 6 6 6 6 7 9 9 4 1 4 4 3 3 6 6 6 6 6 7 5 6 7 5 4 6 3 1 2 1 1 2 0 2 0 2 0 1 2 3 3 5 8 7 8 8 7 7 10 17 20 16 14 15 12 11 12 11 14 21 23 19 16 14 16 19 21 21 22 19 18 21 22 22 23 26 28 29 29
4 5 9 5 1 4 3 2 5 4 5 7 7 6 7 10 10 6 2 3 4 4 6 7 7 6 4 4 6 6 5 6 6 6 8 6 3 3 2 3 4 1 0 1 1 1 1 2 1 2 3 7 7 6 9 9 9 12 16 13 9 8 9 9 11 11 12 17 22 19 14 13 13 15 18 21 24 27 25 21 20 21 23 26 28 29 31 31
8 6 9 6 1 6 6 3 5 5 6 6 8 7 5 7 7 7 4 1 1 3 5 8 9 5 3 5 7 7 6 7 6 6 6 5 4 4 3 4 6 4 2 2 1 1 2 2 1 1 2 7 9 9 9 9 7 7 6 1 3 8 11 13 14 13 14 16 16 12 11 14 16 17 19 21 25 29 27 18 17 22 26 29 31 30 30 30
Wind_Direction
17 15 13 11 10 9 8 7 7 6 6 6 6 5 4 4 1 0 0 360 3 6 9 13 19 15 5 4 4 1 8 49 56 51 53 17 356 3 355 355 356 354 355 353 0 14 17 7 1 6 24 69 11 353 15 9 76 49 78 66 295 202 195 192 193 200 223 291 288 300 126 239 292 299 288 327 270 255 287 275 249 260 256 241 250 271 296 299
13 11 10 8 7 7 6 5 5 4 5 5 5 4 3 3 0 359 359 358 1 5 7 11 19 16 6 3 2 1 7 58 52 46 34 5 1 5 360 359 355 353 359 2 10 26 37 3 342 6 34 50 344 341 4 6 59 81 118 42 254 202 214 198 196 203 206 279 296 301 305 253 271 277 333 298 281 285 295 282 259 256 265 261 259 261 264 257
9 8 7 6 5 4 4 3 3 3 4 4 3 3 3 2 360 358 358 357 358 1 3 6 10 9 4 356 353 356 2 61 49 25 356 357 2 0 359 360 356 356 3 9 20 36 59 36 1 38 45 44 1 340 6 12 19 126 124 280 243 215 248 229 212 220 224 271 300 295 313 293 263 243 113 271 290 297 277 274 266 257 267 271 272 259 242 218
6 6 4 4 3 2 2 1 1 1 2 2 2 2 2 1 359 356 356 355 354 356 356 358 355 357 356 348 348 349 7 68 36 324 336 352 1 357 358 359 358 359 3 13 31 48 62 68 51 56 57 33 343 348 11 333 352 115 145 217 230 200 287 248 216 233 239 230 265 286 325 302 281 225 225 260 301 297 276 263 239 247 264 270 285 279 211 198
3 3 2 2 1 360 360 359 359 360 0 0 1 1 0 360 358 356 355 353 350 350 350 350 345 345 344 343 352 347 22 69 331 327 347 355 359 357 360 359 357 357 3 17 34 51 45 46 52 49 50 35 343 15 344 273 79 138 218 222 233 198 279 264 213 222 215 165 256 287 304 290 304 293 242 226 255 268 270 271 228 238 264 271 285 280 188 199
0 0 1 359 359 358 357 358 358 359 359 359 360 360 359 358 357 355 354 351 348 348 347 345 342 339 339 353 31 29 75 105 293 335 351 350 354 357 359 354 355 356 4 27 33 45 37 30 48 52 38 27 339 5 271 279 75 261 266 257 255 210 240 271 249 235 179 155 270 272 290 303 301 284 260 223 238 251 261 276 282 266 269 272 280 255 209 222
359 359 359 357 356 355 355 356 357 358 358 359 360 359 358 357 356 353 352 349 346 347 348 345 342 339 341 32 74 54 81 145 293 335 346 351 350 349 352 348 354 357 11 32 34 54 55 38 43 101 78 20 286 242 260 298 133 207 269 285 279 222 228 259 277 278 252 232 255 271 316 298 273 277 303 247 244 258 268 284 295 284 287 284 274 260 246 236
359 358 356 355 354 353 353 354 355 357 356 357 358 359 358 356 354 350 349 346 343 347 349 344 340 339 352 83 95 54 61 298 326 344 350 355 346 345 350 352 360 5 31 43 44 89 80 50 28 126 70 343 208 234 252 327 283 199 235 276 293 280 260 269 282 278 268 241 238 255 269 265 261 276 301 271 268 271 274 290 289 288 304 290 265 262 258 247
359 357 354 353 352 351 352 353 354 355 355 355 356 358 358 354 351 347 346 342 339 345 346 343 342 346 27 87 92 73 17 312 343 358 4 2 355 355 359 4 4 10 45 57 55 74 87 88 258 203 237 257 199 261 232 19 286 211 229 281 292 293 292 303 301 290 293 266 172 175 235 256 266 300 280 264 265 272 279 289 288 311 304 278 262 256 246 240
358 355 353 351 351 351 351 351 352 352 353 353 353 356 356 353 348 344 342 339 337 340 342 343 350 14 76 73 72 75 320 320 1 15 10 1 358 359 360 2 1 13 43 64 61 71 97 186 219 142 187 240 167 237 186 145 239 204 244 295 287 290 296 305 304 303 315 280 161 164 238 258 268 269 266 263 255 272 294 289 295 325 293 277 274 266 251 238
356 353 350 349 350 350 349 349 349 350 351 351 352 353 353 351 345 341 339 337 334 337 340 346 5 59 87 78 81 90 300 343 13 16 4 356 357 353 354 357 360 14 31 67 77 78 93 194 186 87 67 243 246 244 212 199 218 208 270 303 296 306 302 302 310 316 340 309 172 182 230 257 326 193 242 265 274 288 302 291 299 301 282 282 279 278 273 250
352 349 348 349 349 348 347 346 346 347 349 350 350 350 350 348 343 338 337 332 331 337 340 351 10 112 100 66 74 119 86 28 16 2 356 353 354 347 352 358 360 8 22 72 80 83 79 193 164 98 289 194 301 311 215 203 336 284 49 300 298 342 320 306 321 329 356 331 295 285 257 251 208 222 244 260 275 303 311 289 287 282 276 282 279 283 280 262
347 346 347 348 347 345 344 343 343 345 347 349 348 348 347 345 340 335 334 327 331 340 340 4 355 197 119 53 70 155 90 37 13 360 356 351 351 348 357 357 350 353 7 58 73 87 68 224 152 166 240 105 273 303 259 88 18 291 57 302 307 352 309 299 323 337 352 321 350 1 311 295 249 233 252 267 282 314 306 287 277 275 273 280 283 287 286 274
343 346 347 347 345 343 342 341 341 342 346 347 346 346 344 341 335 330 329 323 332 342 333 14 9 185 89 81 194 193 330 14 9 2 359 354 356 1 11 354 333 324 343 36 75 84 56 197 127 96 66 107 258 307 330 4 17 296 27 41 3 348 286 306 316 338 357 308 16 20 298 294 294 277 254 241 289 312 299 295 289 284 278 283 287 286 291 282
342 346 347 345 342 341 339 338 339 341 344 346 345 343 341 339 331 326 326 325 335 339 282 348 355 152 75 61 220 291 317 2 8 359 357 358 3 2 353 353 335 322 342 36 74 81 81 137 104 70 269 15 36 12 332 335 5 15 15 333 349 333 294 312 302 328 357 301 11 18 294 295 300 298 288 211 275 293 295 298 299 302 305 311 308 305 304 297
342 347 346 341 339 340 337 337 338 339 342 344 343 342 342 339 329 324 322 332 337 331 280 332 329 97 87 43 299 355 348 1 353 349 353 358 3 344 340 352 3 349 338 22 81 101 87 91 91 91 86 35 47 37 360 1 351 6 30 322 314 321 315 322 303 195 96 309 348 8 280 293 299 302 307 303 289 284 291 297 303 310 321 333 328 323 317 315
343 345 342 338 337 337 336 336 337 338 340 342 343 343 346 345 333 322 322 341 339 295 317 341 334 41 88 9 356 1 340 327 330 337 349 354 2 348 345 2 333 334 350 52 75 70 23 37 70 338 44 52 61 50 25 8 331 330 17 319 287 291 299 315 310 304 73 25 319 304 275 280 288 297 304 309 311 305 294 297 304 314 331 343 335 331 332 332
342 341 339 335 335 337 336 334 336 338 337 341 345 342 347 354 343 320 330 349 345 247 308 356 6 49 95 348 341 306 304 307 321 341 360 355 350 342 354 40 344 338 10 34 38 23 359 9 57 21 17 13 24 51 32 322 293 300 317 312 298 289 259 268 285 297 327 326 273 292 292 289 293 296 300 305 310 309 296 296 306 322 342 346 347 352 353 354
339 337 335 332 335 338 336 334 337 337 336 344 349 342 351 1 357 331 344 3 23 301 294 330 14 88 277 316 297 310 311 305 326 0 10 359 332 322 5 50 37 36 32 11 357 15 12 10 29 23 355 327 328 41 249 248 241 271 290 284 296 306 286 270 263 273 313 315 295 293 292 296 301 301 304 306 307 307 301 303 316 339 356 356 4 9 7 8
336 333 332 331 337 340 337 335 335 339 342 347 352 356 8 8 11 344 340 356 68 105 292 267 312 248 304 317 309 330 333 330 22 39 11 355 323 300 37 20 30 44 49 2 311 344 53 26 345 274 274 280 284 202 191 213 221 281 300 285 286 296 292 293 290 286 345 326 303 315 301 299 299 298 303 306 306 306 306 313 333 12 20 16 20 16 13 13
332 330 330 331 337 343 339 333 335 345 349 356 12 35 69 35 30 331 324 320 243 280 315 265 216 252 278 289 314 336 1 14 5 38 11 348 322 326 346 17 33 8 356 291 286 331 44 22 289 251 237 255 270 126 130 113 81 302 300 301 306 287 279 290 292 293 344 47 297 336 318 300 297 297 300 302 301 301 305 318 346 33 42 34 29 15 9 8
329 327 329 330 338 346 339 335 342 346 350 12 41 66 115 95 32 268 290 303 284 316 340 291 327 303 282 279 309 332 69 21 346 351 358 346 353 29 351 38 45 325 326 4 351 356 8 311 266 255 231 257 339 107 119 113 102 287 287 306 307 290 283 292 291 296 331 134 304 339 322 297 294 293 296 294 290 293 305 346 43 52 47 36 23 12 7 4
326 325 328 328 337 347 344 345 346 344 4 35 56 66 59 26 325 262 226 298 286 311 7 347 27 335 318 317 330 347 48 39 331 323 350 357 17 40 63 51 10 318 348 28 21 351 318 278 257 253 285 316 336 39 76 75 78 215 260 297 292 296 308 296 304 316 316 277 267 301 290 286 289 290 292 288 283 290 306 47 80 65 56 42 18 13 7 3
324 324 327 326 335 349 349 343 347 356 25 51 65 57 32 338 313 268 212 269 287 298 292 286 283 199 298 308 335 353 54 54 311 321 353 17 14 17 90 79 357 340 341 47 46 296 276 275 274 65 42 74 292 327 14 3 330 234 229 246 265 287 287 274 303 327 316 299 258 162 274 277 285 289 291 292 297 305 305 23 75 60 52 37 18 15 7 2
323 323 325 323 331 349 346 328 4 9 23 50 56 28 15 356 328 235 159 30 304 296 272 257 12 181 279 314 325 326 127 24 282 292 344 27 31 360 37 96 63 341 301 354 348 279 273 275 57 54 13 65 27 302 302 220 319 296 241 226 240 274 283 284 310 338 327 304 319 77 316 290 288 289 292 301 305 301 305 9 68 51 34 29 22 15 4 1
321 320 322 321 327 345 346 323 6 5 17 45 25 343 348 353 333 206 126 41 308 291 324 56 27 350 331 332 322 350 92 338 214 123 25 39 68 66 24 331 28 329 276 353 309 270 286 309 50 53 301 335 353 297 253 170 37 310 260 203 225 260 281 285 304 326 323 291 303 34 305 286 288 285 289 300 296 293 309 37 64 36 30 29 22 15 4 1
320 317 318 320 325 341 356 197 350 13 64 10 343 332 338 347 345 189 30 16 330 269 33 348 3 32 352 312 328 40 42 300 316 88 50 22 358 60 23 335 355 310 249 52 329 264 310 333 13 28 318 338 330 303 256 144 113 266 256 350 305 296 286 282 287 285 274 282 295 306 230 268 280 278 290 295 283 293 332 44 38 18 26 25 20 15 5 1
318 314 315 321 326 341 6 8 5 76 101 315 321 325 333 348 50 132 51 2 306 118 97 256 138 46 345 321 3 52 295 312 351 298 17 46 38 40 14 329 251 279 256 129 275 275 307 324 326 324 324 312 276 283 235 122 113 261 288 329 305 288 276 277 281 273 282 291 293 288 250 266 271 279 320 311 278 312 15 36 20 7 14 16 12 7 2 2
316 311 310 318 326 339 356 3 61 99 223 295 317 320 330 0 80 67 64 272 281 71 106 300 119 353 347 357 13 22 333 4 47 284 358 58 45 25 4 249 169 279 275 150 230 261 248 243 244 278 288 253 260 288 159 115 34 291 314 323 299 289 275 271 271 271 304 296 280 286 280 260 275 289 333 323 298 1 18 21 11 360 11 11 3 1 1 1
314 308 305 312 320 328 343 18 74 87 284 297 317 324 340 31 65 44 351 257 287 333 213 32 346 328 9 19 346 348 11 358 304 322 354 43 11 17 24 54 72 29 307 359 268 262 284 279 202 102 260 212 179 336 139 126 20 325 342 340 322 317 310 295 286 274 337 277 273 282 277 298 293 296 344 341 55 78 31 2 360 1 15 6 357 358 359 360
310 302 300 305 310 315 338 51 50 342 321 318 323 338 11 24 67 83 262 245 213 308 273 40 335 4 41 41 318 330 7 337 326 8 10 350 5 13 11 18 32 24 350 351 326 310 319 326 50 127 228 112 87 28 90 125 48 15 9 350 328 320 330 322 330 26 271 272 280 292 342 322 290 291 340 329 39 73 33 6 4 5 8 356 349 352 358 0
304 295 296 301 305 313 334 9 325 336 348 341 330 20 69 17 13 184 254 291 317 299 136 161 295 64 62 51 276 288 324 327 353 45 35 10 37 32 25 43 348 340 350 320 320 342 320 296 337 158 111 36 47 22 1 45 44 16 343 355 349 324 326 314 327 337 262 272 284 297 334 306 273 290 340 351 41 35 4 10 13 6 355 344 345 353 1 358
294 288 291 296 302 313 323 307 313 344 358 342 343 50 76 31 288 217 241 304 266 289 81 103 17 66 65 2 283 279 317 283 339 30 70 56 68 54 15 36 5 311 275 280 320 349 324 294 11 19 355 29 58 63 358 336 2 346 276 84 17 333 326 312 317 307 281 281 289 299 325 297 277 303 58 91 52 332 330 0 3 353 342 338 343 351 359 352
285 284 284 287 296 301 307 310 321 353 359 358 53 42 40 289 259 226 230 248 250 335 43 97 19 11 54 325 281 290 35 252 335 16 26 41 45 22 340 349 7 360 245 303 316 346 332 304 360 38 36 49 56 82 130 291 324 317 179 102 51 57 1 299 296 293 291 290 291 300 312 286 295 34 135 91 345 334 346 352 351 349 345 345 347 350 352 350
276 276 276 279 287 292 302 312 328 2 9 41 69 62 241 251 257 230 233 244 276 346 354 110 56 357 313 325 315 309 215 215 5 18 21 47 62 58 30 333 344 359 358 336 308 322 310 273 262 307 76 92 80 119 169 300 321 299 129 56 54 118 175 262 268 266 277 281 280 294 278 270 299 314 339 357 348 347 351 351 352 348 345 348 347 347 346 342
265 268 271 276 284 288 302 316 341 17 40 70 79 196 212 235 239 199 206 210 135 109 331 332 83 171 294 309 323 328 351 50 31 23 1 35 91 99 89 323 332 4 51 76 316 12 331 277 270 324 18 102 119 306 283 278 301 306 15 7 276 249 201 234 273 258 265 278 274 298 284 278 299 308 342 2 348 343 347 349 347 338 336 341 339 337 334 329
239 246 256 276 294 282 289 318 21 44 62 94 165 228 219 226 214 176 180 169 129 112 76 334 254 175 248 260 265 306 342 7 28 31 312 321 57 110 116 55 4 24 40 159 168 97 269 286 255 198 222 168 218 337 18 132 79 34 334 299 285 301 219 198 285 267 266 276 276 305 293 291 300 297 357 3 341 333 336 334 327 324 330 333 327 326 323 318
201 171 267 256 260 261 266 279 111 78 75 116 221 248 216 211 211 130 150 146 112 93 105 207 238 176 179 210 244 264 302 319 334 9 300 257 155 116 110 118 352 359 331 322 58 88 325 305 282 159 119 286 290 34 43 342 62 90 312 314 332 349 342 320 308 302 305 293 287 300 290 289 298 307 338 343 328 322 325 322 322 324 327 325 320 320 317 312
179 56 295 213 199 229 187 144 121 79 85 169 229 250 218 234 279 230 185 143 108 118 158 216 240 150 158 174 195 238 289 241 201 107 112 168 201 92 84 91 328 339 334 35 75 305 56 302 277 146 85 352 337 50 8 306 340 91 36 346 347 352 325 308 280 286 306 291 286 297 285 281 304 324 323 323 317 317 320 320 320 319 318 317 315 314 310 306
174 59 256 198 184 191 144 126 102 92 135 199 203 222 246 274 288 272 249 234 149 175 194 209 217 193 202 194 191 187 60 174 165 151 203 189 102 85 60 39 9 337 341 35 61 344 63 224 265 294 360 354 342 91 289 306 329 27 28 9 5 7 332 303 273 265 281 277 287 305 281 276 309 322 308 313 315 316 317 316 313 311 311 312 311 309 304 297
137 19 248 186 153 148 128 122 158 151 188 223 200 220 267 311 310 315 313 310 179 228 160 158 169 182 186 189 202 171 110 173 171 155 223 235 78 104 122 124 247 304 15 28 27 27 100 180 267 293 317 335 300 256 256 270 231 168 81 28 3 344 339 321 296 283 278 279 292 301 284 285 316 313 300 315 314 312 314 311 307 307 310 309 307 306 299 291
135 219 221 139 151 153 129 155 230 150 191 233 208 202 203 77 3 317 329 41 170 276 77 136 163 177 174 163 192 175 130 174 198 193 223 214 48 117 154 190 254 189 96 8 308 245 154 119 268 281 289 287 283 288 250 166 142 115 89 50 330 310 335 304 287 296 297 286 289 280 276 285 329 318 305 311 307 309 310 306 306 308 310 308 305 303 297 293
178 201 124 135 161 164 143 219 225 191 224 238 244 194 163 145 164 206 256 275 208 154 69 188 189 174 184 150 135 165 156 157 179 175 138 96 73 179 178 255 282 110 89 16 296 287 99 76 338 287 291 277 272 292 134 139 88 58 28 340 322 296 287 263 269 288 288 288 296 277 267 282 328 320 304 304 305 308 307 305 308 310 309 308 304 302 301 299
179 152 52 169 182 169 178 216 205 218 236 243 268 236 216 180 176 181 211 222 205 153 137 209 194 159 164 111 107 176 198 147 135 139 119 131 170 181 199 280 281 140 120 220 235 323 322 12 24 331 315 315 319 348 307 274 29 54 310 323 311 292 292 287 283 289 281 289 295 286 276 290 308 306 300 303 306 305 304 306 309 309 308 306 304 304 304 301
140 117 34 208 205 181 205 221 181 192 215 210 231 224 204 211 194 177 190 194 176 152 147 191 142 99 99 94 70 38 229 151 149 132 97 140 179 187 248 273 259 186 216 220 122 77 266 242 88 41 298 303 305 300 299 312 327 340 346 329 309 300 303 303 304 304 289 288 289 283 281 289 296 300 301 303 304 302 304 307 307 306 306 305 307 307 304 301
142 206 145 49 306 231 237 313 134 177 179 161 247 222 188 206 236 179 176 181 164 128 110 154 140 102 107 129 110 214 275 349 98 138 137 174 183 204 240 251 263 225 184 95 69 82 106 190 212 215 232 247 264 273 286 300 300 308 327 315 298 296 298 300 304 288 279 286 286 275 280 290 297 303 303 303 304 303 304 307 308 307 306 307 308 305 301 298
180 209 167 140 280 215 242 302 204 205 182 169 197 202 186 201 234 187 174 175 155 118 92 122 153 162 179 158 144 184 204 39 118 153 164 172 171 267 252 218 269 231 166 103 62 80 108 247 242 234 238 244 259 271 281 288 287 296 307 295 285 287 293 295 283 275 281 292 285 278 284 291 297 302 303 303 303 301 304 308 309 307 306 305 302 298 296 294
201 201 163 159 163 180 200 211 193 198 206 189 191 176 184 198 196 197 196 121 131 147 155 180 194 197 187 164 154 167 162 176 205 178 158 151 149 330 331 3 218 188 120 89 45 104 126 237 233 239 252 249 249 262 270 275 281 291 286 276 277 282 287 286 277 276 281 278 278 286 291 291 294 299 300 301 302 302 305 309 306 302 300 298 295 295 294 293
167 140 291 145 156 177 167 149 168 193 204 195 208 212 202 204 202 207 156 124 185 255 205 209 218 191 178 164 154 168 179 186 219 205 167 152 154 156 21 350 226 122 80 69 246 143 123 232 218 235 266 265 250 255 259 260 273 285 277 271 274 279 281 279 275 276 278 273 277 286 291 291 295 299 299 301 303 301 302 304 299 296 295 294 294 294 293 292
162 178 163 99 79 149 101 119 156 193 206 194 215 219 203 207 208 204 139 157 194 232 203 212 206 172 172 171 157 188 202 170 168 184 163 142 134 174 168 212 208 67 57 102 269 267 141 241 214 219 280 282 264 255 258 265 278 280 275 272 272 275 276 276 279 285 293 287 285 291 296 296 296 300 304 306 303 299 300 300 299 297 296 293 293 294 294 293
135 133 142 131 162 159 147 162 156 179 213 201 209 205 193 209 203 182 198 196 185 200 197 194 183 154 160 183 175 207 212 154 157 178 162 154 177 182 180 179 168 146 355 195 262 323 223 260 324 28 323 285 280 289 293 298 296 277 271 270 272 278 283 287 291 297 299 292 292 299 302 298 302 308 308 306 301 298 300 303 304 304 302 299 297 295 293 291
129 114 132 124 164 174 165 167 166 194 221 200 199 199 191 206 190 171 207 227 124 240 217 171 157 138 144 194 207 214 195 165 175 182 163 159 175 184 198 190 173 164 167 176 178 232 200 205 297 1 315 283 291 304 306 316 319 286 269 293 318 301 302 299 295 293 291 291 296 300 297 297 305 310 307 305 303 300 302 311 314 309 306 302 297 292 291 296
Height
834 832 830 828 826 823 821 819 817 815 812 810 807 805 803 801 799 797 795 793 792 790 789 787 786 785 783 782 781 779 779 778 778 777 779 782 783 782 781 780 779 777 776 775 773 772 772 771 770 770 768 770 776 777 777 778 780 781 787 794 793 796 793 784 783 780 777 772 766 766 770 772 766 764 762 759 758 755 753 748 745 745 739 734 731 731 733 733
834 832 830 828 826 823 821 819 817 814 813 809 807 805 803 801 798 797 795 793 791 790 789 787 786 785 782 781 781 780 779 779 778 779 782 784 783 782 781 780 779 777 776 775 773 773 773 774 773 772 771 775 779 777 777 779 780 783 791 795 791 789 783 777 775 773 774 769 765 766 770 773 767 764 764 760 756 755 755 746 741 742 735 731 731 732 733 733
834 833 831 828 826 823 821 818 816 814 812 809 807 805 803 800 798 797 795 793 791 790 789 787 786 784 782 781 779 779 779 779 780 783 784 784 783 782 781 780 779 777 776 775 775 774 774 775 773 773 775 777 782 780 778 780 782 786 792 791 783 780 778 774 772 770 771 769 768 767 770 771 765 765 764 760 757 754 753 743 738 737 730 728 729 732 733 733
835 833 831 828 826 823 821 818 816 814 812 809 807 804 802 800 798 797 794 793 791 790 788 787 785 783 783 780 778 779 777 780 786 786 785 784 783 782 781 780 779 777 777 776 775 775 774 775 774 774 776 779 784 783 780 781 784 788 790 784 775 779 778 769 768 769 770 773 772 769 771 769 762 765 763 760 760 753 743 735 734 732 727 727 728 731 733 733
835 833 831 829 826 824 821 818 816 814 811 809 807 804 802 800 798 796 794 793 790 789 787 786 785 783 782 779 778 776 776 787 791 786 785 784 783 782 781 780 779 778 777 776 776 775 774 775 774 776 779 781 784 783 782 783 784 785 782 775 772 779 775 763 765 768 769 774 773 771 771 765 762 763 758 758 760 748 734 728 730 730 728 728 729 731 733 733
835 833 831 829 826 824 821 818 816 813 811 809 807 804 801 799 798 795 794 792 790 789 786 785 783 782 780 778 778 773 778 792 790 785 786 784 783 782 781 780 779 778 777 776 776 775 775 776 776 780 784 784 786 786 785 784 785 783 776 771 771 776 773 762 764 766 769 774 771 770 769 766 764 760 754 754 750 738 728 727 730 730 729 730 730 731 731 731
835 833 831 829 827 824 821 819 816 813 811 809 807 804 801 799 797 794 793 791 789 788 786 785 782 781 779 777 777 775 781 789 787 785 785 783 782 782 780 780 779 778 777 776 776 777 778 779 778 783 786 785 788 787 786 785 785 785 778 771 769 772 769 763 764 767 770 773 769 769 770 767 763 760 755 746 739 734 729 728 730 730 729 730 729 729 729 730
835 833 831 829 827 824 822 819 816 814 811 809 806 804 801 798 796 794 792 791 789 787 786 784 782 780 778 776 777 780 785 787 785 784 784 783 782 781 780 779 778 777 777 776 777 778 779 781 781 784 786 786 787 786 787 786 783 785 779 771 768 767 763 762 766 766 767 769 768 770 770 762 757 760 754 739 735 734 730 728 729 728 727 728 728 727 728 729
835 833 831 829 827 824 822 819 816 814 811 808 806 804 801 798 796 793 792 790 788 787 785 783 782 779 778 777 777 783 788 786 784 784 783 782 781 781 780 779 778 778 777 778 778 778 779 783 783 782 783 785 786 785 786 785 781 781 776 772 772 766 760 762 762 761 763 765 766 767 766 757 754 758 748 734 734 731 728 728 726 727 726 724 725 724 725 726
835 833 831 829 826 824 821 819 816 813 811 808 805 804 801 798 795 793 791 789 787 786 785 783 781 779 778 778 779 786 788 785 785 784 782 782 781 780 779 779 779 778 778 779 779 778 780 781 781 781 781 784 786 785 786 785 782 780 778 776 774 770 765 764 760 760 762 760 762 763 760 754 754 759 745 728 729 728 728 727 725 726 724 722 723 722 724 725
834 832 830 828 826 824 821 819 817 814 810 807 805 803 801 798 795 792 790 789 787 785 784 782 781 780 778 777 782 788 786 784 785 783 783 782 780 780 779 779 779 779 779 779 780 780 780 779 780 781 782 785 785 785 785 783 781 780 781 778 774 771 766 761 758 761 762 755 758 761 756 754 758 758 743 729 727 727 728 727 726 726 723 722 722 721 723 724
834 832 830 828 825 824 821 819 817 814 811 807 804 801 799 798 794 792 790 788 786 785 783 782 781 780 778 779 784 786 784 784 784 783 783 781 781 780 780 780 779 779 778 779 780 780 780 780 779 781 782 785 784 783 782 782 783 781 783 780 774 773 765 756 756 762 763 754 753 753 747 750 755 747 733 728 728 729 730 727 725 724 721 722 721 721 722 723
834 831 829 827 825 823 821 819 817 814 811 807 804 800 798 796 794 792 790 787 786 785 783 781 781 779 779 783 785 784 783 784 783 783 782 781 781 780 780 779 778 779 778 778 779 779 780 779 780 782 783 784 784 783 780 784 786 781 785 784 777 778 767 756 758 761 760 755 750 751 748 742 740 735 728 729 730 730 727 722 722 721 720 721 721 722 721 723
833 831 829 827 825 823 821 819 816 814 811 807 803 800 797 795 794 792 789 787 785 784 782 781 781 779 780 784 784 783 784 783 783 782 782 781 781 780 780 779 778 778 778 778 779 779 780 779 781 782 783 785 784 781 780 784 786 782 785 785 784 785 770 757 761 761 759 757 752 755 758 741 729 727 727 729 729 728 724 718 717 717 719 722 722 722 720 720
833 831 828 826 825 823 820 818 816 813 810 807 803 799 797 795 792 790 788 787 785 784 782 781 781 779 782 785 783 783 784 783 783 782 782 781 780 780 780 779 779 778 778 778 779 779 779 780 781 783 785 786 785 784 784 782 785 788 786 785 790 791 777 764 763 762 761 760 756 758 758 741 726 722 722 728 728 727 725 717 713 714 717 720 720 720 717 715
832 830 828 826 825 822 820 818 815 813 810 806 803 799 797 794 792 789 788 787 784 783 782 782 781 779 784 786 783 783 784 784 784 783 782 782 781 781 780 780 779 778 778 778 779 780 780 780 784 788 786 786 789 789 786 784 787 794 794 791 792 791 786 774 761 761 766 764 760 763 762 746 730 719 717 724 725 726 725 717 712 712 716 720 719 718 715 712
831 830 828 827 824 822 820 817 816 813 810 807 803 799 796 794 791 788 788 787 784 783 783 782 780 780 784 785 783 785 785 785 784 783 783 782 782 782 781 781 780 779 778 778 779 780 780 782 787 789 789 793 796 792 789 793 796 797 800 799 795 793 793 784 766 761 766 767 764 766 763 751 737 727 721 720 722 726 725 719 714 714 718 720 719 717 715 715
831 829 828 827 825 822 820 818 816 813 810 807 803 800 797 794 790 788 788 786 783 783 783 783 781 785 789 786 786 788 786 785 784 783 783 782 782 782 781 781 781 780 779 780 780 781 782 785 787 786 788 793 795 794 797 802 803 801 802 802 799 797 794 790 779 765 764 769 770 770 761 747 736 729 724 720 720 723 721 718 718 718 721 720 719 719 719 721
831 829 828 827 825 822 820 818 816 813 810 806 803 800 796 793 790 788 787 786 787 788 789 790 790 794 795 790 789 788 785 784 783 783 783 782 782 782 782 782 782 781 783 784 783 786 788 787 788 788 790 792 792 797 801 801 801 801 804 805 804 801 791 786 782 772 770 771 768 770 761 746 735 727 724 720 716 718 716 715 718 723 724 723 723 726 726 726
830 829 828 826 824 823 820 818 817 814 811 807 803 799 798 800 798 796 793 790 795 798 796 797 798 797 794 791 791 788 785 783 783 784 783 783 782 782 782 782 783 784 789 794 791 793 795 791 791 794 795 793 793 801 802 802 803 802 804 803 804 806 793 780 777 771 773 774 766 765 762 748 735 726 724 721 714 714 715 713 719 727 729 730 732 732 731 729
830 829 827 826 824 823 820 819 817 815 814 810 804 803 810 815 813 813 809 799 798 801 798 798 799 797 794 794 793 790 788 784 784 785 784 784 782 781 784 785 787 790 795 800 797 796 798 794 791 793 795 794 797 805 805 803 804 802 802 801 803 807 795 779 776 771 772 776 767 764 765 749 732 723 721 722 718 715 715 717 723 730 734 737 738 736 733 730
830 828 826 825 824 823 821 820 818 817 815 812 808 812 819 822 820 821 820 810 801 799 799 798 797 796 795 794 794 793 791 788 787 786 786 786 782 784 789 790 793 797 799 800 798 799 799 794 790 794 799 797 798 805 806 804 804 803 803 805 804 801 792 781 773 769 773 778 771 769 771 752 728 720 719 719 719 715 714 722 731 735 738 741 740 737 733 729
829 827 826 825 824 824 821 820 819 817 816 814 814 819 822 822 822 822 822 818 807 799 798 798 796 797 796 795 795 793 791 792 792 789 788 786 785 789 792 793 797 798 800 799 799 804 803 793 791 798 799 794 793 797 802 804 805 805 802 804 801 794 795 788 774 770 772 775 774 775 776 759 730 717 716 712 712 714 714 723 736 740 741 743 741 738 734 731
828 827 826 824 824 823 821 821 820 818 818 818 820 822 823 822 822 822 821 818 810 802 799 799 798 798 797 795 795 794 793 796 796 792 790 789 790 793 792 796 799 796 799 802 802 804 801 794 796 800 796 794 794 794 798 801 803 804 801 802 799 793 794 791 783 782 776 766 767 774 774 761 734 716 713 708 706 713 712 719 737 742 742 743 740 739 737 734
828 827 825 824 823 823 822 821 820 820 820 821 822 824 824 823 822 822 822 817 811 803 799 799 799 798 797 796 795 795 794 795 796 794 793 793 793 794 795 799 799 797 800 805 805 801 798 798 799 796 793 797 798 796 797 799 802 802 798 797 795 792 793 791 792 795 789 769 756 768 775 760 735 714 711 711 709 712 711 720 740 744 743 743 742 742 741 738
827 826 825 824 823 822 822 821 822 822 821 823 824 824 824 823 822 823 822 818 810 802 799 800 800 799 797 797 796 795 796 795 795 796 794 794 794 794 796 799 800 800 801 804 805 801 798 798 797 795 795 798 798 798 799 799 803 803 797 797 796 796 797 796 798 800 798 778 756 767 780 767 743 717 710 717 715 712 714 727 742 743 743 744 744 745 743 741
827 825 825 823 822 822 821 822 822 821 822 824 824 824 824 822 823 823 820 820 813 802 801 802 801 799 798 799 797 795 799 798 794 795 795 795 794 794 796 799 801 802 803 806 804 800 798 793 794 797 796 797 798 799 800 799 803 801 798 801 799 800 801 799 802 802 797 782 765 767 776 775 753 717 710 721 718 714 721 734 742 740 743 744 744 746 744 742
826 825 824 823 822 821 821 822 822 822 824 824 823 824 823 821 824 821 822 827 815 800 800 801 799 799 798 800 799 797 801 800 796 796 795 795 795 795 797 799 802 802 803 807 803 799 798 793 793 796 797 799 799 800 802 801 802 798 799 805 802 804 803 799 803 801 795 790 778 766 768 775 751 711 709 719 715 719 729 739 743 739 743 745 745 745 742 741
825 824 823 823 822 821 822 821 821 823 823 823 824 823 821 823 822 819 828 832 810 796 801 800 798 801 802 800 800 802 801 800 802 799 795 797 796 796 798 799 802 801 801 805 802 798 798 795 795 797 799 801 799 802 804 801 802 802 803 803 801 802 800 798 801 798 798 797 783 765 764 770 745 715 719 719 719 736 742 743 744 741 745 746 743 742 739 739
824 823 823 823 822 822 822 821 822 823 823 823 823 821 821 821 819 826 837 829 808 803 803 800 803 807 807 802 801 805 803 803 807 801 797 799 797 798 800 801 803 803 804 806 803 801 800 798 800 801 801 803 802 804 804 804 807 808 805 803 800 797 794 794 796 798 801 793 774 760 764 771 748 720 722 724 731 751 751 745 744 742 745 745 741 740 738 738
823 823 822 822 822 822 822 822 823 822 823 823 822 822 821 818 821 835 836 818 809 811 803 804 811 810 811 810 808 808 805 806 809 804 803 804 802 804 803 804 810 806 802 803 801 802 802 797 799 802 803 804 801 801 805 810 812 810 809 809 807 801 795 794 794 797 801 787 766 756 763 773 753 723 721 728 738 749 748 746 746 745 747 745 742 740 738 738
822 822 821 821 822 822 822 824 823 823 824 823 824 822 820 824 829 830 821 808 807 809 804 810 815 812 816 818 814 814 811 810 811 809 813 812 814 822 820 822 828 816 805 806 807 807 801 796 802 805 804 803 798 799 806 810 813 817 815 814 818 817 810 806 803 802 801 786 763 757 768 772 747 726 730 736 741 745 743 744 746 747 748 745 741 739 738 740
821 821 821 821 821 821 822 823 822 824 823 823 825 821 821 835 836 823 816 811 808 808 809 814 817 818 820 815 813 818 816 815 813 812 816 816 819 829 833 835 837 826 816 814 815 814 805 800 805 803 802 807 805 808 816 815 816 822 817 815 822 827 829 827 817 807 804 790 764 758 774 766 736 729 740 743 742 742 739 740 743 744 744 742 739 739 740 741
821 820 820 820 821 821 821 822 822 823 824 824 824 822 828 838 830 819 817 813 810 813 816 819 819 819 819 816 818 820 816 816 817 814 814 815 816 822 831 835 834 832 826 816 815 818 809 801 803 803 804 812 815 819 825 821 819 818 814 815 819 826 839 841 831 819 813 801 776 767 773 755 730 731 741 742 739 736 734 734 735 735 733 733 730 730 733 735
820 819 820 819 820 820 820 821 821 822 824 824 823 826 833 832 822 817 816 811 811 815 818 821 820 815 816 821 824 822 814 815 819 816 814 817 819 824 833 838 838 838 829 816 815 822 817 807 809 810 807 812 820 824 823 818 815 814 815 817 818 824 834 836 829 817 814 812 789 772 765 740 721 725 733 738 735 730 731 731 731 732 730 730 729 729 732 733
819 819 819 819 819 819 819 820 820 822 823 823 826 830 827 820 813 812 812 811 813 813 814 818 815 812 815 820 824 823 817 816 820 818 816 820 823 829 839 842 843 841 834 827 826 831 831 816 809 813 811 816 822 820 819 817 813 815 817 817 819 822 827 837 833 810 805 814 792 771 764 742 729 733 734 739 737 731 736 740 740 741 738 738 739 738 739 737
820 819 819 818 818 818 819 819 820 822 823 824 827 826 818 811 807 807 811 815 817 816 816 817 814 811 814 817 820 823 819 818 822 820 818 822 824 831 840 842 845 843 841 841 834 837 842 823 806 807 809 817 821 817 818 819 817 821 824 820 820 821 820 828 832 815 811 816 795 779 776 758 751 750 741 744 747 742 746 749 747 745 742 742 742 740 739 737
820 819 818 818 818 818 819 819 821 822 823 826 827 822 816 812 809 810 813 815 816 816 817 817 814 812 815 816 819 824 823 818 821 823 821 821 824 832 839 842 845 844 844 844 836 838 845 826 804 802 807 814 817 816 820 821 819 824 827 822 822 830 831 829 829 824 825 824 806 796 786 763 756 755 748 754 756 750 752 751 746 744 743 744 741 738 737 734
821 819 817 817 817 818 819 819 821 823 824 826 825 820 818 815 813 815 816 814 815 815 815 815 813 814 819 819 820 826 826 820 822 824 821 818 824 835 842 844 845 844 843 842 838 839 843 831 811 803 809 816 814 817 824 825 824 826 829 827 825 831 837 839 835 829 834 834 819 813 800 770 760 761 759 761 758 754 754 750 747 746 744 743 740 737 734 731
821 819 816 816 817 818 819 820 822 824 824 824 822 818 818 817 814 818 819 815 814 813 814 815 816 817 821 824 824 825 827 826 825 825 824 822 826 837 846 848 847 846 845 843 841 841 842 839 823 804 805 814 816 822 827 828 832 833 833 835 837 837 836 838 833 823 830 836 827 826 814 780 766 768 764 762 759 755 753 750 748 747 744 742 739 735 732 729
821 818 815 817 817 818 820 821 823 824 822 821 820 817 817 817 816 818 819 818 815 813 814 816 817 818 820 824 826 825 828 830 828 827 826 825 829 838 847 850 849 847 846 842 842 843 841 841 833 818 814 818 819 821 823 826 831 833 834 838 842 843 844 850 843 822 821 828 826 831 818 781 767 769 764 761 759 754 753 751 748 745 743 740 735 732 729 725
820 816 815 817 818 818 821 821 825 827 822 817 817 815 815 817 817 817 817 817 816 814 814 816 818 820 821 822 826 828 828 830 831 829 828 831 839 845 848 850 849 847 846 842 842 844 843 845 845 835 825 822 820 819 822 826 826 827 834 838 839 841 845 855 855 836 829 828 822 825 811 776 763 766 764 762 759 755 753 750 745 742 740 738 732 728 725 720
818 816 816 818 817 819 821 821 825 828 822 818 819 817 816 817 817 817 817 815 814 814 814 816 818 819 821 823 827 829 826 827 829 829 833 843 850 850 849 849 847 846 846 842 841 843 842 844 848 841 827 819 817 820 824 823 823 830 837 837 839 842 841 845 843 836 838 834 825 826 808 774 761 764 763 760 758 755 752 747 743 740 736 734 730 725 720 715
816 817 819 818 817 820 820 817 819 821 820 819 818 816 817 817 815 815 815 813 814 815 814 816 818 818 822 827 827 827 825 823 826 832 838 846 850 851 851 851 847 845 844 842 841 843 841 840 846 848 840 827 819 822 826 822 824 836 840 837 837 835 834 836 833 833 838 829 821 823 806 775 762 762 760 758 757 754 750 745 742 738 733 729 726 721 717 712
815 816 819 819 817 819 820 816 814 815 817 818 817 816 816 815 815 815 814 813 815 815 814 816 821 822 826 830 829 829 828 823 826 836 842 845 849 852 851 849 847 844 843 844 843 844 846 847 848 854 857 851 840 836 835 831 831 836 839 838 833 829 831 835 837 840 838 824 817 818 803 777 763 762 760 758 756 751 747 744 740 735 730 725 720 718 713 708
810 810 816 821 819 819 820 820 817 814 815 818 817 816 814 812 814 816 814 814 815 816 817 819 823 824 826 830 830 831 832 829 831 839 842 843 847 849 848 846 846 844 843 844 844 845 850 852 849 849 854 853 847 841 837 837 841 843 844 841 832 827 828 834 841 842 832 823 819 810 795 778 767 764 761 756 752 749 744 742 739 733 727 722 717 713 707 703
807 805 809 815 818 819 820 821 820 815 814 815 814 814 814 812 814 815 813 813 815 816 818 821 823 821 821 826 828 829 834 836 835 838 841 842 844 846 846 845 845 843 842 843 844 846 854 857 850 847 847 844 842 840 838 840 843 844 845 842 832 827 827 833 840 833 823 826 819 798 787 783 773 766 760 752 749 745 741 740 738 731 725 720 714 706 700 695
804 801 802 804 806 812 817 817 816 815 815 815 813 813 814 814 814 813 811 814 817 815 815 820 822 820 820 822 821 825 835 838 836 838 841 842 846 846 843 843 845 843 842 845 845 847 855 859 851 845 844 842 842 841 838 840 842 842 843 838 829 827 827 830 831 821 818 824 811 789 785 785 773 764 758 751 745 741 739 738 735 729 723 716 709 700 694 688
802 802 803 803 802 806 810 810 813 815 815 816 815 813 812 812 811 810 811 814 817 815 813 814 817 821 823 820 817 821 827 827 828 837 842 842 846 847 843 842 844 844 845 847 845 847 853 856 851 846 845 843 842 840 839 840 842 841 838 831 826 827 825 824 822 813 811 812 798 784 784 780 770 763 755 748 742 736 735 734 729 725 719 711 703 694 687 681
793 794 798 804 807 808 810 811 813 816 816 816 815 811 809 810 809 809 811 811 812 815 815 812 814 822 825 821 818 818 819 818 821 830 838 840 841 844 844 841 841 844 846 846 845 846 849 851 848 847 848 844 838 838 838 838 842 843 835 826 825 826 822 818 814 808 806 804 791 783 784 777 765 758 752 746 739 731 729 730 724 719 714 707 698 689 681 675
785 786 789 797 805 809 812 812 813 815 814 812 810 807 806 807 806 806 809 810 809 810 812 810 814 824 828 825 820 818 820 823 822 825 831 834 833 836 838 838 840 844 846 846 846 846 848 850 847 848 853 846 835 835 837 836 840 837 828 824 823 821 818 814 809 806 806 800 789 786 787 775 759 754 752 746 736 725 723 725 721 714 709 701 693 685 675 666
783 786 786 790 799 805 808 810 812 812 806 801 801 801 802 803 804 805 809 812 813 812 810 811 816 822 827 827 823 819 821 823 824 826 829 830 831 833 834 836 838 842 845 847 847 846 847 849 848 851 855 846 834 834 838 840 836 819 808 814 818 814 814 811 805 803 801 795 791 789 782 768 757 755 751 744 735 721 715 720 721 713 706 698 686 676 668 661